User: anonymous   Login
Location: Kunchanapalle
(16.4623°N, 80.6176°E)
Time: 10:01:37
(UTC+00:00)
Language:

Cosmos 1328 Rocket - Orbit

View from above orbital plane
View from above orbital plane
View from above satellite
View from above satellite

Ground track
Ground track

The orbit data is extracted from the following two-line orbital elements,

1 12988U 81117B   20299.96402231 +.00000090 +00000-0 +76484-5 0  9998
2 12988 082.5270 002.5295 0019531 112.6094 060.5345 14.84780383080804
Epoch (UTC): 25 October 2020 23:08:11
Eccentricity: 0.0019531
inclination: 82.5270°
perigee height: 600 km
apogee height: 628 km
right ascension of ascending node: 2.5295°
argument of perigee: 112.6094°
revolutions per day: 14.84780383
mean anomaly at epoch: 60.5345°
orbit number at epoch: 8080

The dashed part of the orbit path shows where the satellite is in the earth's shadow,  

DLR